Flag for Philippines Weather past 2 weeks in Zamboanga City, Philippines

Now
82 °F

Passing clouds.


Feels Like: 91 °F
Forecast: 77 / 92 °F
Wind: 2 mph from West

Location: Zamboanga

Current Time: Mar 29, 2015 at 10:46:05 PM

Latest Report: Mar 29, 2015 at 8:00 PM


Visibility: N/A

Pressure: 29.89 "Hg

Humidity: 84%

Dew point: 77 °F

Location of Zamboanga CityLocation

Historic Weather in Zamboanga City — Graph

°F

Zamboanga City temperature yesterday

Maximum temperature yesterday: 91 °F (at 2:00 PM)
Minimum temperature yesterday: 75 °F (at 5:00 AM)
Average temperature yesterday: 84 °F

Past Weeks' High & Low Weather Summary

 TemperatureHumidityPressure
High95 °F (Mar 17, 3:00 PM)94% (Mar 16, 2:00 AM)30.04 "Hg (Mar 16, 2:00 AM)
Low66 °F (Mar 18, 5:00 AM)44% (Mar 17, 3:00 PM)29.83 "Hg (Mar 18, 3:00 PM)
Average85 °F70%29.93 "Hg
* Reported Mar 14 8:00 PM — Mar 29 8:00 PM, Zamboanga City, Weather by CustomWeather, © 2015

Note: Actual official high and low records may vary slightly from our data, if they occured in-between our weather recording intervals... More about our weather records

Advertising

Zamboanga City weather history for previous 24 hours

 ConditionsComfort  
Time TempWeatherWind HumidityBarometerVisibility
8:00 PM
Sun, Mar 29
82 °FPassing clouds.2 mph84%29.89 "HgN/A
6:00 PM86 °FScattered clouds.2 mph75%29.86 "HgN/A
5:00 PM90 °FPassing clouds.5 mph67%29.86 "HgN/A
4:00 PM91 °FPassing clouds.5 mph67%29.83 "HgN/A
3:00 PM93 °FPassing clouds.5 mph63%29.86 "HgN/A
2:00 PM93 °FScattered clouds.5 mph63%29.89 "HgN/A
1:00 PM91 °FScattered clouds.5 mph71%29.89 "HgN/A
12:00 PM91 °FScattered clouds.5 mph71%29.92 "HgN/A
11:00 AM88 °FScattered clouds.5 mph75%29.95 "HgN/A
10:00 AM91 °FScattered clouds.5 mph71%29.95 "HgN/A
9:00 AM86 °FScattered clouds.5 mph84%29.95 "HgN/A
8:00 AM82 °FScattered clouds.No wind84%29.95 "HgN/A
7:00 AM79 °FPassing clouds.No wind89%29.89 "HgN/A
6:00 AM77 °FScattered clouds.No wind94%29.89 "HgN/A
5:00 AM77 °FPassing clouds.No wind94%29.89 "HgN/A
2:00 AM77 °FPassing clouds.No wind94%29.89 "HgN/A
11:00 PM
Sat, Mar 28
79 °FPassing clouds.No wind89%29.92 "HgN/A
Weather by CustomWeather, © 2015

See weather overviewHow to use our weather pages